Location: Brachstadt
(48.6975°N, 10.6755°E)
Time: 15:05:36
(UTC+00:00)

NOSS 2-2 (E) - Pass Details

Date: 18 September 2020
Orbit: 468 x 1739 km, 63.3° (Epoch: 22 October)

Event Time Altitude Azimuth Distance (km) Brightness Sun altitude
Rises 19:12:23 0° 230° (SW) 2,496 7.0 -18.3°
Reaches altitude 10° 19:14:25 10° 234° (SW) 1,638 6.1 -18.6°
Maximum altitude 19:17:54 60° 316° (NW) 584 3.6 -19.1°
Drops below altitude 10° 19:21:59 10° 37° (NE) 1,914 6.0 -19.7°
Sets 19:24:32 0° 41° (NE) 2,974 6.9 -20.1°
